CFTIW KSTL-CYXU

Flight info

Callsign CFTIW
Flight time 3h 19m
Altitude 11000
Route DCT
Aircraft BE58/L-SDE3/1200

Departure

Time 2026-04-24 09:57
Airport St. Louis Lambert International Airport (KSTL)

Arrival

Time 2026-04-24 13:16
Airport London International Airport (CYXU)
Time Latitude Longitude Altitude Speed Heading
2026-04-24 09:42 38.74383 -90.36452 554 ft 0 kts 235°
2026-04-24 09:47 38.74386 -90.36447 560 ft 2 kts 235°
2026-04-24 09:47 38.74394 -90.36432 557 ft 2 kts 235°
2026-04-24 09:48 38.74402 -90.36417 560 ft 2 kts 235°
2026-04-24 09:48 38.74411 -90.36402 556 ft 2 kts 235°
2026-04-24 09:48 38.74418 -90.36388 559 ft 0 kts 235°
2026-04-24 09:49 38.74418 -90.36389 560 ft 0 kts 234°
2026-04-24 09:49 38.74431 -90.36414 555 ft 7 kts 332°
2026-04-24 09:50 38.74466 -90.36465 553 ft 10 kts 301°
2026-04-24 09:50 38.74517 -90.36572 550 ft 18 kts 303°
2026-04-24 09:50 38.74579 -90.36696 549 ft 15 kts 301°
2026-04-24 09:50 38.74639 -90.36730 550 ft 8 kts
2026-04-24 09:51 38.74686 -90.36769 549 ft 9 kts 306°
2026-04-24 09:51 38.74722 -90.36846 549 ft 15 kts 301°
2026-04-24 09:51 38.74777 -90.36957 550 ft 13 kts 302°
2026-04-24 09:51 38.74830 -90.37067 549 ft 19 kts 303°
2026-04-24 09:52 38.74903 -90.37216 549 ft 18 kts 301°
2026-04-24 09:52 38.74967 -90.37342 548 ft 16 kts 301°
2026-04-24 09:52 38.75026 -90.37460 546 ft 15 kts 302°
2026-04-24 09:52 38.75080 -90.37571 545 ft 14 kts 302°
2026-04-24 09:53 38.75134 -90.37681 542 ft 15 kts 302°
2026-04-24 09:53 38.75190 -90.37795 542 ft 15 kts 302°
2026-04-24 09:53 38.75242 -90.37898 542 ft 13 kts 301°
2026-04-24 09:53 38.75298 -90.37967 541 ft 10 kts 360°
2026-04-24 09:54 38.75316 -90.37961 541 ft 0 kts 29°
2026-04-24 09:54 38.75343 -90.37937 541 ft 10 kts 39°
2026-04-24 09:55 38.75359 -90.37854 540 ft 10 kts 116°
2026-04-24 09:55 38.75328 -90.37782 541 ft 9 kts 121°
2026-04-24 09:55 38.75302 -90.37730 541 ft 5 kts 122°
2026-04-24 09:55 38.75301 -90.37727 541 ft 0 kts 120°
2026-04-24 09:56 38.75264 -90.37655 540 ft 26 kts 120°
2026-04-24 09:56 38.75069 -90.37252 548 ft 87 kts 119°
2026-04-24 09:57 38.74695 -90.36425 803 ft 114 kts 120°
2026-04-24 09:57 38.74319 -90.35500 1280 ft 119 kts 117°
2026-04-24 09:57 38.73980 -90.34467 1617 ft 134 kts 121°
2026-04-24 09:57 38.73689 -90.33253 2082 ft 146 kts 107°
2026-04-24 09:58 38.73836 -90.31986 2714 ft 146 kts 60°
2026-04-24 09:58 38.74508 -90.31054 3304 ft 137 kts 25°
2026-04-24 09:58 38.75294 -90.30506 3886 ft 128 kts 17°
2026-04-24 09:58 38.76118 -90.30029 4388 ft 129 kts 15°
2026-04-24 09:59 38.76879 -90.29452 4927 ft 126 kts 22°
2026-04-24 09:59 38.77620 -90.28849 5367 ft 127 kts 28°
2026-04-24 09:59 38.78286 -90.28077 5798 ft 129 kts 34°
2026-04-24 09:59 38.78945 -90.27296 6224 ft 129 kts 34°
2026-04-24 10:00 38.79584 -90.26472 6599 ft 131 kts 38°
2026-04-24 10:00 38.80228 -90.25636 6976 ft 132 kts 37°
2026-04-24 10:00 38.80865 -90.24778 7357 ft 134 kts 42°
2026-04-24 10:00 38.81488 -90.23883 7734 ft 135 kts 42°
2026-04-24 10:01 38.82112 -90.22998 8102 ft 136 kts 41°
2026-04-24 10:01 38.82759 -90.22082 8482 ft 138 kts 43°
2026-04-24 10:01 38.83359 -90.21126 8849 ft 141 kts 50°
2026-04-24 10:01 38.83923 -90.20101 9241 ft 141 kts 52°
2026-04-24 10:02 38.84481 -90.19067 9615 ft 141 kts 52°
2026-04-24 10:02 38.85042 -90.18028 9940 ft 142 kts 53°
2026-04-24 10:02 38.85599 -90.16974 10254 ft 144 kts 54°
2026-04-24 10:02 38.86171 -90.15909 10554 ft 146 kts 54°
2026-04-24 10:03 38.86745 -90.14830 10862 ft 147 kts 55°
2026-04-24 10:03 38.87349 -90.13690 10998 ft 166 kts 56°
2026-04-24 10:03 38.88028 -90.12390 11000 ft 183 kts 55°
2026-04-24 10:03 38.88773 -90.10989 10951 ft 198 kts 56°
2026-04-24 10:04 38.89570 -90.09495 10867 ft 206 kts 56°
2026-04-24 10:04 38.90383 -90.07969 10841 ft 206 kts 56°
2026-04-24 10:04 38.91191 -90.06456 10843 ft 205 kts 56°
2026-04-24 10:04 38.91996 -90.04942 10832 ft 205 kts 56°
2026-04-24 10:05 38.92801 -90.03428 10832 ft 205 kts 56°
2026-04-24 10:05 38.93606 -90.01913 10830 ft 205 kts 56°
2026-04-24 10:05 38.94397 -90.00420 10828 ft 205 kts 56°
2026-04-24 10:05 38.95200 -89.98911 10827 ft 204 kts 55°
2026-04-24 10:06 38.96002 -89.97401 10825 ft 204 kts 56°
2026-04-24 10:06 38.97601 -89.94383 10818 ft 205 kts 56°
2026-04-24 10:06 38.98405 -89.92865 10815 ft 205 kts 56°
2026-04-24 10:07 38.99208 -89.91347 10813 ft 205 kts 56°
2026-04-24 10:07 39.00012 -89.89829 10807 ft 205 kts 56°
2026-04-24 10:07 39.00816 -89.88310 10806 ft 205 kts 56°
2026-04-24 10:07 39.01618 -89.86791 10802 ft 205 kts 56°
2026-04-24 10:08 39.02420 -89.85274 10800 ft 205 kts 56°
2026-04-24 10:08 39.02690 -89.84762 10799 ft 205 kts 56°
2026-04-24 10:08 39.02723 -89.84701 10796 ft 205 kts 56°
2026-04-24 10:08 39.03497 -89.83236 10795 ft 205 kts 56°
2026-04-24 10:09 39.04295 -89.81724 10791 ft 204 kts 56°
2026-04-24 10:09 39.05092 -89.80213 10792 ft 204 kts 56°
2026-04-24 10:09 39.05881 -89.78717 10788 ft 205 kts 56°
2026-04-24 10:09 39.06689 -89.77184 10787 ft 204 kts 56°
2026-04-24 10:10 39.07484 -89.75674 10783 ft 204 kts 56°
2026-04-24 10:10 39.08280 -89.74163 10782 ft 203 kts 56°
2026-04-24 10:10 39.09064 -89.72674 10782 ft 204 kts 56°
2026-04-24 10:10 39.09860 -89.71163 10776 ft 204 kts 56°
2026-04-24 10:11 39.10655 -89.69649 10775 ft 204 kts 56°
2026-04-24 10:11 39.11451 -89.68136 10775 ft 204 kts 56°
2026-04-24 10:11 39.12249 -89.66617 10772 ft 204 kts 56°
2026-04-24 10:11 39.13045 -89.65101 10771 ft 205 kts 56°
2026-04-24 10:12 39.13843 -89.63580 10771 ft 205 kts 56°
2026-04-24 10:12 39.14640 -89.62061 10769 ft 205 kts 56°
2026-04-24 10:12 39.15439 -89.60539 10775 ft 205 kts 56°
2026-04-24 10:12 39.16237 -89.59016 10775 ft 205 kts 56°
2026-04-24 10:13 39.17035 -89.57493 10772 ft 205 kts 56°
2026-04-24 10:13 39.17831 -89.55973 10779 ft 205 kts 57°
2026-04-24 10:13 39.18627 -89.54451 10775 ft 205 kts 57°
2026-04-24 10:13 39.19423 -89.52930 10777 ft 205 kts 57°
2026-04-24 10:14 39.20219 -89.51406 10778 ft 205 kts 57°
2026-04-24 10:14 39.21016 -89.49883 10778 ft 205 kts 57°
2026-04-24 10:14 39.21812 -89.48361 10775 ft 204 kts 57°
2026-04-24 10:14 39.22604 -89.46843 10774 ft 204 kts 57°
2026-04-24 10:15 39.23397 -89.45323 10776 ft 204 kts 57°
2026-04-24 10:15 39.24188 -89.43807 10779 ft 204 kts 57°
2026-04-24 10:15 39.24980 -89.42288 10782 ft 204 kts 57°
2026-04-24 10:15 39.25759 -89.40793 10784 ft 203 kts 57°
2026-04-24 10:16 39.26551 -89.39275 10787 ft 204 kts 57°
2026-04-24 10:16 39.27337 -89.37763 10792 ft 203 kts 57°
2026-04-24 10:16 39.28124 -89.36252 10787 ft 203 kts 57°
2026-04-24 10:16 39.28910 -89.34741 10787 ft 203 kts 57°
2026-04-24 10:17 39.29695 -89.33231 10791 ft 203 kts 57°
2026-04-24 10:17 39.30481 -89.31720 10791 ft 203 kts 57°
2026-04-24 10:17 39.31265 -89.30210 10793 ft 202 kts 57°
2026-04-24 10:17 39.32048 -89.28701 10793 ft 202 kts 57°
2026-04-24 10:18 39.32831 -89.27193 10795 ft 202 kts 58°
2026-04-24 10:18 39.33614 -89.25685 10798 ft 202 kts 57°
2026-04-24 10:18 39.34395 -89.24177 10796 ft 202 kts 58°
2026-04-24 10:18 39.35177 -89.22668 10796 ft 202 kts 58°
2026-04-24 10:19 39.35958 -89.21161 10799 ft 202 kts 58°
2026-04-24 10:19 39.36739 -89.19651 10795 ft 202 kts 58°
2026-04-24 10:19 39.37521 -89.18140 10801 ft 202 kts 58°
2026-04-24 10:19 39.38300 -89.16636 10801 ft 201 kts 58°
2026-04-24 10:20 39.39078 -89.15130 10799 ft 201 kts 58°
2026-04-24 10:20 39.39856 -89.13626 10800 ft 202 kts 58°
2026-04-24 10:20 39.40636 -89.12116 10797 ft 201 kts 58°
2026-04-24 10:20 39.41149 -89.11120 10796 ft 201 kts 58°
2026-04-24 10:21 39.41927 -89.09614 10795 ft 201 kts 58°
2026-04-24 10:21 39.42702 -89.08111 10796 ft 201 kts 58°
2026-04-24 10:21 39.43480 -89.06603 10793 ft 201 kts 58°
2026-04-24 10:21 39.44255 -89.05099 10795 ft 201 kts 58°
2026-04-24 10:22 39.45029 -89.03596 10797 ft 201 kts 58°
2026-04-24 10:22 39.45804 -89.02091 10791 ft 201 kts 58°
2026-04-24 10:22 39.46577 -89.00590 10788 ft 201 kts 58°
2026-04-24 10:22 39.47348 -88.99091 10787 ft 200 kts 58°
2026-04-24 10:23 39.48119 -88.97589 10787 ft 200 kts 58°
2026-04-24 10:23 39.48890 -88.96091 10784 ft 199 kts 58°
2026-04-24 10:23 39.49659 -88.94595 10784 ft 200 kts 58°
2026-04-24 10:23 39.50415 -88.93121 10784 ft 199 kts 58°
2026-04-24 10:24 39.51182 -88.91627 10781 ft 199 kts 59°
2026-04-24 10:24 39.51948 -88.90134 10780 ft 199 kts 58°
2026-04-24 10:24 39.52714 -88.88639 10782 ft 199 kts 58°
2026-04-24 10:24 39.53479 -88.87147 10782 ft 199 kts 59°
2026-04-24 10:25 39.54243 -88.85656 10782 ft 198 kts 59°
2026-04-24 10:25 39.55005 -88.84167 10784 ft 198 kts 59°
2026-04-24 10:25 39.55768 -88.82676 10782 ft 198 kts 59°
2026-04-24 10:25 39.56528 -88.81191 10788 ft 198 kts 59°
2026-04-24 10:26 39.57287 -88.79706 10786 ft 198 kts 59°
2026-04-24 10:26 39.58048 -88.78217 10788 ft 198 kts 59°
2026-04-24 10:26 39.58807 -88.76731 10785 ft 198 kts 59°
2026-04-24 10:26 39.59567 -88.75242 10786 ft 197 kts 59°
2026-04-24 10:27 39.60314 -88.73780 10787 ft 197 kts 59°
2026-04-24 10:27 39.61080 -88.72277 10785 ft 198 kts 59°
2026-04-24 10:27 39.61838 -88.70791 10785 ft 197 kts 59°
2026-04-24 10:27 39.62594 -88.69306 10789 ft 197 kts 59°
2026-04-24 10:28 39.63348 -88.67827 10787 ft 197 kts 59°
2026-04-24 10:28 39.64093 -88.66363 10784 ft 197 kts 59°
2026-04-24 10:28 39.64848 -88.64881 10783 ft 197 kts 59°
2026-04-24 10:28 39.65599 -88.63404 10789 ft 196 kts 59°
2026-04-24 10:29 39.66348 -88.61930 10784 ft 196 kts 59°
2026-04-24 10:29 39.67098 -88.60454 10784 ft 196 kts 59°
2026-04-24 10:29 39.67847 -88.58980 10783 ft 196 kts 59°
2026-04-24 10:29 39.68595 -88.57508 10781 ft 195 kts 59°
2026-04-24 10:30 39.69341 -88.56038 10780 ft 195 kts 59°
2026-04-24 10:30 39.70087 -88.54566 10781 ft 195 kts 59°
2026-04-24 10:30 39.70834 -88.53093 10777 ft 195 kts 59°
2026-04-24 10:30 39.71578 -88.51625 10781 ft 195 kts 59°
2026-04-24 10:31 39.72320 -88.50159 10781 ft 195 kts 59°
2026-04-24 10:31 39.73065 -88.48689 10778 ft 195 kts 59°
2026-04-24 10:31 39.73807 -88.47222 10777 ft 194 kts 59°
2026-04-24 10:31 39.74550 -88.45754 10774 ft 194 kts 59°
2026-04-24 10:32 39.75290 -88.44290 10779 ft 194 kts 59°
2026-04-24 10:32 39.76027 -88.42829 10777 ft 193 kts 59°
2026-04-24 10:32 39.76766 -88.41368 10774 ft 193 kts 59°
2026-04-24 10:32 39.77503 -88.39910 10777 ft 193 kts 59°
2026-04-24 10:33 39.78239 -88.38449 10776 ft 193 kts 59°
2026-04-24 10:33 39.78976 -88.36990 10778 ft 193 kts 59°
2026-04-24 10:33 39.79711 -88.35531 10774 ft 193 kts 59°
2026-04-24 10:33 39.80447 -88.34072 10778 ft 193 kts 59°
2026-04-24 10:34 39.81173 -88.32630 10781 ft 193 kts 59°
2026-04-24 10:34 39.81908 -88.31170 10780 ft 193 kts 59°
2026-04-24 10:34 39.82640 -88.29716 10777 ft 192 kts 59°
2026-04-24 10:34 39.83372 -88.28261 10778 ft 192 kts 59°
2026-04-24 10:35 39.84103 -88.26806 10777 ft 192 kts 59°
2026-04-24 10:35 39.84835 -88.25350 10779 ft 192 kts 59°
2026-04-24 10:35 39.85566 -88.23894 10778 ft 192 kts 59°
2026-04-24 10:35 39.86295 -88.22443 10782 ft 191 kts 59°
2026-04-24 10:36 39.87021 -88.20996 10785 ft 191 kts 59°
2026-04-24 10:36 39.87746 -88.19551 10780 ft 191 kts 59°
2026-04-24 10:36 39.88472 -88.18103 10785 ft 191 kts 59°
2026-04-24 10:36 39.89196 -88.16658 10788 ft 190 kts 59°
2026-04-24 10:37 39.89919 -88.15215 10788 ft 190 kts 59°
2026-04-24 10:37 39.90641 -88.13773 10783 ft 190 kts 59°
2026-04-24 10:37 39.91362 -88.12333 10780 ft 190 kts 59°
2026-04-24 10:37 39.92084 -88.10890 10784 ft 190 kts 59°
2026-04-24 10:38 39.92806 -88.09447 10783 ft 190 kts 59°
2026-04-24 10:38 39.93517 -88.08024 10779 ft 190 kts 59°
2026-04-24 10:38 39.94237 -88.06582 10780 ft 189 kts 59°
2026-04-24 10:38 39.94955 -88.05144 10780 ft 189 kts 59°
2026-04-24 10:39 39.95673 -88.03707 10782 ft 189 kts 59°
2026-04-24 10:39 39.96391 -88.02267 10782 ft 189 kts 59°
2026-04-24 10:39 39.97108 -88.00829 10776 ft 189 kts 59°
2026-04-24 10:39 39.97824 -87.99392 10778 ft 189 kts 59°
2026-04-24 10:40 39.98540 -87.97956 10782 ft 189 kts 59°
2026-04-24 10:40 39.99253 -87.96523 10782 ft 189 kts 59°
2026-04-24 10:40 39.99968 -87.95088 10778 ft 188 kts 59°
2026-04-24 10:40 40.00681 -87.93655 10783 ft 188 kts 59°
2026-04-24 10:41 40.01392 -87.92224 10779 ft 188 kts 59°
2026-04-24 10:41 40.02103 -87.90793 10777 ft 188 kts 59°
2026-04-24 10:41 40.02815 -87.89362 10782 ft 188 kts 59°
2026-04-24 10:41 40.03524 -87.87933 10782 ft 188 kts 59°
2026-04-24 10:42 40.04232 -87.86507 10787 ft 187 kts 59°
2026-04-24 10:42 40.04941 -87.85079 10791 ft 187 kts 59°
2026-04-24 10:42 40.05638 -87.83673 10788 ft 187 kts 59°
2026-04-24 10:42 40.06355 -87.82226 10790 ft 187 kts 59°
2026-04-24 10:43 40.07054 -87.80817 10791 ft 187 kts 59°
2026-04-24 10:43 40.07759 -87.79391 10792 ft 187 kts 59°
2026-04-24 10:43 40.08467 -87.77961 10795 ft 187 kts 59°
2026-04-24 10:43 40.09173 -87.76534 10800 ft 187 kts 59°
2026-04-24 10:44 40.09877 -87.75111 10798 ft 187 kts 59°
2026-04-24 10:44 40.10582 -87.73686 10800 ft 187 kts 59°
2026-04-24 10:44 40.11287 -87.72259 10798 ft 187 kts 59°
2026-04-24 10:44 40.11990 -87.70836 10804 ft 186 kts 59°
2026-04-24 10:45 40.12693 -87.69412 10802 ft 186 kts 59°
2026-04-24 10:45 40.13395 -87.67991 10806 ft 186 kts 59°
2026-04-24 10:45 40.14086 -87.66589 10804 ft 186 kts 59°
2026-04-24 10:45 40.14785 -87.65171 10807 ft 186 kts 59°
2026-04-24 10:46 40.15485 -87.63750 10806 ft 186 kts 59°
2026-04-24 10:46 40.16185 -87.62329 10808 ft 186 kts 59°
2026-04-24 10:46 40.16885 -87.60908 10804 ft 186 kts 59°
2026-04-24 10:46 40.17583 -87.59488 10806 ft 186 kts 59°
2026-04-24 10:47 40.18282 -87.58069 10803 ft 186 kts 59°
2026-04-24 10:47 40.18981 -87.56647 10806 ft 186 kts 59°
2026-04-24 10:47 40.19678 -87.55228 10803 ft 185 kts 59°
2026-04-24 10:47 40.20373 -87.53813 10806 ft 185 kts 59°
2026-04-24 10:48 40.21069 -87.52396 10806 ft 185 kts 58°
2026-04-24 10:48 40.21765 -87.50979 10804 ft 185 kts 59°
2026-04-24 10:48 40.22459 -87.49563 10804 ft 185 kts 58°
2026-04-24 10:48 40.23154 -87.48147 10806 ft 185 kts 59°
2026-04-24 10:49 40.23847 -87.46733 10804 ft 185 kts 59°
2026-04-24 10:49 40.24540 -87.45317 10804 ft 185 kts 59°
2026-04-24 10:49 40.25233 -87.43901 10803 ft 184 kts 59°
2026-04-24 10:49 40.25925 -87.42488 10802 ft 184 kts 59°
2026-04-24 10:50 40.26616 -87.41076 10801 ft 184 kts 58°
2026-04-24 10:50 40.27307 -87.39664 10801 ft 184 kts 58°
2026-04-24 10:50 40.27996 -87.38253 10797 ft 184 kts 58°
2026-04-24 10:50 40.28686 -87.36841 10798 ft 184 kts 59°
2026-04-24 10:51 40.29375 -87.35431 10797 ft 184 kts 58°
2026-04-24 10:51 40.30064 -87.34020 10796 ft 184 kts 59°
2026-04-24 10:51 40.30753 -87.32608 10798 ft 183 kts 58°
2026-04-24 10:51 40.31438 -87.31202 10799 ft 183 kts 58°
2026-04-24 10:52 40.32125 -87.29793 10796 ft 183 kts 58°
2026-04-24 10:52 40.32802 -87.28405 10797 ft 183 kts 58°
2026-04-24 10:52 40.33487 -87.26996 10798 ft 183 kts 58°
2026-04-24 10:52 40.34173 -87.25588 10798 ft 183 kts 58°
2026-04-24 10:53 40.34858 -87.24180 10799 ft 183 kts 58°
2026-04-24 10:53 40.35544 -87.22770 10802 ft 183 kts 58°
2026-04-24 10:53 40.36229 -87.21361 10805 ft 183 kts 58°
2026-04-24 10:53 40.36912 -87.19957 10806 ft 182 kts 58°
2026-04-24 10:54 40.37593 -87.18553 10809 ft 183 kts 58°
2026-04-24 10:54 40.38275 -87.17149 10810 ft 183 kts 58°
2026-04-24 10:54 40.38958 -87.15740 10807 ft 183 kts 58°
2026-04-24 10:54 40.39642 -87.14332 10817 ft 183 kts 58°
2026-04-24 10:55 40.40324 -87.12924 10811 ft 183 kts 58°
2026-04-24 10:55 40.41006 -87.11517 10820 ft 183 kts 58°
2026-04-24 10:55 40.41687 -87.10111 10815 ft 183 kts 58°
2026-04-24 10:55 40.42368 -87.08705 10811 ft 182 kts 58°
2026-04-24 10:56 40.43048 -87.07300 10811 ft 182 kts 58°
2026-04-24 10:56 40.43727 -87.05897 10817 ft 182 kts 58°
2026-04-24 10:56 40.44398 -87.04509 10810 ft 182 kts 58°
2026-04-24 10:56 40.45076 -87.03105 10809 ft 182 kts 58°
2026-04-24 10:57 40.45755 -87.01700 10814 ft 182 kts 58°
2026-04-24 10:57 40.46434 -87.00295 10822 ft 182 kts 58°
2026-04-24 10:57 40.47112 -86.98889 10814 ft 182 kts 58°
2026-04-24 10:57 40.47789 -86.97487 10817 ft 182 kts 58°
2026-04-24 10:58 40.48466 -86.96082 10815 ft 182 kts 58°
2026-04-24 10:58 40.49141 -86.94681 10815 ft 182 kts 58°
2026-04-24 10:58 40.49818 -86.93276 10816 ft 181 kts 58°
2026-04-24 10:58 40.50492 -86.91876 10811 ft 181 kts 58°
2026-04-24 10:59 40.51167 -86.90474 10811 ft 181 kts 58°
2026-04-24 10:59 40.51841 -86.89073 10815 ft 181 kts 58°
2026-04-24 10:59 40.52517 -86.87669 10813 ft 181 kts 58°
2026-04-24 10:59 40.53190 -86.86268 10812 ft 181 kts 58°
2026-04-24 11:00 40.53862 -86.84869 10812 ft 181 kts 59°
2026-04-24 11:00 40.54535 -86.83469 10807 ft 181 kts 58°
2026-04-24 11:00 40.55206 -86.82070 10814 ft 181 kts 59°
2026-04-24 11:00 40.55878 -86.80670 10808 ft 181 kts 58°
2026-04-24 11:01 40.56547 -86.79274 10812 ft 181 kts 59°
2026-04-24 11:01 40.57219 -86.77873 10816 ft 181 kts 58°
2026-04-24 11:01 40.57888 -86.76477 10808 ft 181 kts 58°
2026-04-24 11:01 40.58557 -86.75079 10813 ft 180 kts 58°
2026-04-24 11:02 40.59226 -86.73682 10802 ft 180 kts 58°
2026-04-24 11:02 40.59894 -86.72287 10808 ft 180 kts 58°
2026-04-24 11:02 40.60562 -86.70890 10814 ft 180 kts 58°
2026-04-24 11:02 40.61228 -86.69498 10821 ft 180 kts 58°
2026-04-24 11:03 40.61895 -86.68101 10817 ft 180 kts 58°
2026-04-24 11:03 40.62561 -86.66706 10825 ft 180 kts 58°
2026-04-24 11:03 40.63230 -86.65307 10816 ft 181 kts 58°
2026-04-24 11:03 40.63897 -86.63908 10824 ft 180 kts 58°
2026-04-24 11:04 40.64562 -86.62513 10828 ft 180 kts 58°
2026-04-24 11:04 40.65227 -86.61120 10829 ft 180 kts 58°
2026-04-24 11:04 40.65892 -86.59723 10837 ft 180 kts 59°
2026-04-24 11:04 40.66558 -86.58327 10840 ft 180 kts 58°
2026-04-24 11:05 40.67215 -86.56947 10843 ft 180 kts 58°
2026-04-24 11:05 40.67887 -86.55533 10845 ft 180 kts 58°
2026-04-24 11:05 40.68549 -86.54142 10851 ft 180 kts 59°
2026-04-24 11:05 40.69214 -86.52745 10850 ft 180 kts 58°
2026-04-24 11:06 40.69877 -86.51350 10852 ft 180 kts 58°
2026-04-24 11:06 40.70540 -86.49954 10854 ft 179 kts 58°
2026-04-24 11:06 40.71192 -86.48580 10849 ft 179 kts 59°
2026-04-24 11:06 40.71863 -86.47167 10849 ft 180 kts 58°
2026-04-24 11:07 40.73187 -86.44375 10850 ft 179 kts 59°
2026-04-24 11:07 40.73839 -86.43001 10848 ft 180 kts 59°
2026-04-24 11:07 40.74500 -86.41604 10849 ft 180 kts 59°
2026-04-24 11:08 40.75164 -86.40203 10849 ft 180 kts 59°
2026-04-24 11:08 40.75828 -86.38801 10846 ft 180 kts 59°
2026-04-24 11:08 40.76490 -86.37401 10849 ft 180 kts 59°
2026-04-24 11:08 40.77153 -86.36000 10847 ft 180 kts 59°
2026-04-24 11:09 40.77816 -86.34598 10849 ft 180 kts 59°
2026-04-24 11:09 40.78478 -86.33195 10846 ft 180 kts 59°
2026-04-24 11:09 40.79140 -86.31795 10847 ft 180 kts 59°
2026-04-24 11:09 40.79804 -86.30387 10844 ft 180 kts 59°
2026-04-24 11:10 40.80468 -86.28981 10844 ft 180 kts 59°
2026-04-24 11:10 40.80907 -86.28051 10847 ft 180 kts 59°
2026-04-24 11:10 40.81570 -86.26643 10845 ft 180 kts 59°
2026-04-24 11:10 40.82233 -86.25236 10841 ft 181 kts 59°
2026-04-24 11:11 40.82898 -86.23825 10840 ft 181 kts 59°
2026-04-24 11:11 40.83561 -86.22416 10838 ft 181 kts 59°
2026-04-24 11:11 40.84225 -86.21005 10841 ft 181 kts 59°
2026-04-24 11:11 40.84890 -86.19591 10840 ft 181 kts 59°
2026-04-24 11:12 40.85558 -86.18172 10930 ft 186 kts 59°
2026-04-24 11:12 40.86263 -86.16673 10832 ft 195 kts 59°
2026-04-24 11:12 40.86980 -86.15146 10835 ft 196 kts 59°
2026-04-24 11:12 40.87697 -86.13618 10837 ft 196 kts 59°
2026-04-24 11:13 40.88415 -86.12088 10839 ft 196 kts 59°
2026-04-24 11:13 40.89123 -86.10580 10834 ft 196 kts 59°
2026-04-24 11:13 40.89840 -86.09050 10838 ft 196 kts 59°
2026-04-24 11:13 40.90557 -86.07520 10837 ft 196 kts 59°
2026-04-24 11:14 40.91272 -86.05991 10835 ft 196 kts 59°
2026-04-24 11:14 40.91988 -86.04463 10831 ft 195 kts 59°
2026-04-24 11:14 40.92703 -86.02935 10840 ft 195 kts 59°
2026-04-24 11:14 40.93340 -86.01353 10838 ft 195 kts 66°
2026-04-24 11:15 40.93902 -85.99719 10837 ft 195 kts 67°
2026-04-24 11:15 40.94459 -85.98085 10836 ft 195 kts 67°
2026-04-24 11:15 40.94850 -85.96390 10841 ft 193 kts 84°
2026-04-24 11:15 40.95008 -85.94632 10838 ft 192 kts 88°
2026-04-24 11:16 40.95111 -85.92868 10842 ft 192 kts 89°
2026-04-24 11:16 40.95209 -85.91103 10840 ft 193 kts 89°
2026-04-24 11:16 40.95305 -85.89336 10840 ft 193 kts 89°
2026-04-24 11:16 40.95401 -85.87566 10837 ft 193 kts 89°
2026-04-24 11:17 40.95496 -85.85792 10837 ft 193 kts 89°
2026-04-24 11:17 40.95589 -85.84020 10839 ft 193 kts 89°
2026-04-24 11:17 40.95680 -85.82254 10836 ft 193 kts 89°
2026-04-24 11:17 40.95772 -85.80481 10849 ft 193 kts 89°
2026-04-24 11:18 40.95863 -85.78712 10854 ft 193 kts 89°
2026-04-24 11:18 40.95953 -85.76934 10856 ft 193 kts 89°
2026-04-24 11:18 40.96044 -85.75159 10855 ft 193 kts 89°
2026-04-24 11:18 40.96133 -85.73401 10792 ft 190 kts 89°
2026-04-24 11:19 40.96222 -85.71647 10553 ft 191 kts 89°
2026-04-24 11:19 40.96311 -85.69890 10315 ft 191 kts 89°
2026-04-24 11:19 40.96403 -85.68136 10101 ft 190 kts 89°
2026-04-24 11:19 40.96497 -85.66398 9851 ft 189 kts 89°
2026-04-24 11:20 40.96590 -85.64668 9513 ft 189 kts 89°
2026-04-24 11:20 40.96687 -85.62933 9169 ft 189 kts 89°
2026-04-24 11:20 40.96786 -85.61201 8842 ft 189 kts 89°
2026-04-24 11:20 40.96886 -85.59468 8525 ft 189 kts 89°
2026-04-24 11:21 40.96986 -85.57738 8221 ft 189 kts 89°
2026-04-24 11:21 40.97086 -85.56031 7926 ft 189 kts 89°
2026-04-24 11:21 40.97190 -85.54303 7639 ft 188 kts 89°
2026-04-24 11:21 40.97293 -85.52576 7349 ft 188 kts 89°
2026-04-24 11:22 40.97399 -85.50849 7055 ft 189 kts 89°
2026-04-24 11:22 40.97507 -85.49118 6779 ft 188 kts 88°
2026-04-24 11:22 40.97612 -85.47394 6502 ft 188 kts 88°
2026-04-24 11:22 40.97719 -85.45670 6234 ft 188 kts 89°
2026-04-24 11:23 40.97828 -85.43942 5960 ft 187 kts 88°
2026-04-24 11:23 40.97933 -85.42230 5701 ft 187 kts 88°
2026-04-24 11:23 40.98038 -85.40517 5442 ft 187 kts 89°
2026-04-24 11:23 40.98150 -85.38796 5178 ft 189 kts 88°
2026-04-24 11:24 40.98269 -85.37068 5007 ft 188 kts 88°
2026-04-24 11:24 40.98386 -85.35346 4816 ft 188 kts 88°
2026-04-24 11:24 40.98505 -85.33626 4624 ft 187 kts 88°
2026-04-24 11:24 40.98627 -85.31910 4344 ft 188 kts 88°
2026-04-24 11:25 40.98752 -85.30194 4082 ft 187 kts 88°
2026-04-24 11:25 40.98879 -85.28487 3829 ft 186 kts 88°
2026-04-24 11:25 40.99005 -85.26786 3609 ft 185 kts 88°
2026-04-24 11:25 40.99133 -85.25091 3388 ft 185 kts 88°
2026-04-24 11:26 40.99460 -85.23468 3061 ft 186 kts 57°
2026-04-24 11:26 41.00314 -85.22197 2738 ft 184 kts 43°
2026-04-24 11:26 41.01195 -85.20981 2435 ft 183 kts 47°
2026-04-24 11:26 41.02039 -85.19718 2154 ft 182 kts 49°
2026-04-24 11:27 41.02870 -85.18497 1885 ft 172 kts 48°
2026-04-24 11:27 41.03650 -85.17411 1869 ft 154 kts 48°
2026-04-24 11:27 41.03983 -85.16241 1864 ft 123 kts 110°
2026-04-24 11:27 41.03632 -85.15305 1872 ft 116 kts 132°
2026-04-24 11:28 41.03232 -85.14346 1881 ft 121 kts 131°
2026-04-24 11:28 41.02718 -85.13725 2057 ft 84 kts 186°
2026-04-24 11:28 41.02113 -85.13865 1925 ft 93 kts 212°
2026-04-24 11:28 41.01626 -85.14360 1862 ft 77 kts 224°
2026-04-24 11:29 41.01275 -85.14750 1653 ft 75 kts 219°
2026-04-24 11:31 41.01165 -85.14866 1538 ft 81 kts 219°
2026-04-24 11:31 41.01122 -85.14911 1481 ft 84 kts 218°
2026-04-24 11:34 41.00853 -85.15239 1352 ft 79 kts 231°
2026-04-24 11:34 41.00563 -85.15785 1317 ft 69 kts 225°
2026-04-24 11:34 41.00207 -85.16246 1297 ft 74 kts 224°
2026-04-24 11:34 40.99821 -85.16734 1216 ft 79 kts 218°
2026-04-24 11:35 40.99422 -85.17255 1149 ft 82 kts 221°
2026-04-24 11:35 40.99003 -85.17776 1013 ft 83 kts 222°
2026-04-24 11:35 40.98593 -85.18291 832 ft 80 kts 221°
2026-04-24 11:35 40.98384 -85.18545 802 ft 54 kts 223°
2026-04-24 11:37 40.98361 -85.18572 802 ft 49 kts 215°
2026-04-24 11:37 40.98285 -85.18682 801 ft 6 kts 256°
2026-04-24 11:37 40.98313 -85.18780 800 ft 19 kts 314°
2026-04-24 11:37 40.98306 -85.18922 801 ft 15 kts 225°
2026-04-24 11:38 40.98241 -85.19009 800 ft 15 kts 226°
2026-04-24 11:38 40.98223 -85.19133 799 ft 13 kts 307°
2026-04-24 11:38 40.98289 -85.19221 799 ft 16 kts 310°
2026-04-24 11:38 40.98298 -85.19311 799 ft 10 kts 186°
2026-04-24 11:39 40.98230 -85.19305 800 ft 7 kts 160°
2026-04-24 11:39 40.98213 -85.19272 800 ft 1 kts 84°
2026-04-24 11:39 40.98213 -85.19270 800 ft 0 kts 83°
2026-04-24 11:54 40.98211 -85.19288 800 ft 2 kts 83°
2026-04-24 11:55 40.98210 -85.19301 800 ft 0 kts 83°
2026-04-24 11:55 40.98211 -85.19296 800 ft 3 kts 60°
2026-04-24 11:55 40.98262 -85.19263 799 ft 11 kts 31°
2026-04-24 11:56 40.98257 -85.19178 799 ft 11 kts 135°
2026-04-24 11:56 40.98207 -85.19102 798 ft 11 kts 111°
2026-04-24 11:56 40.98238 -85.19009 800 ft 13 kts 44°
2026-04-24 11:56 40.98309 -85.18920 801 ft 20 kts 45°
2026-04-24 11:57 40.98415 -85.18780 802 ft 18 kts 41°
2026-04-24 11:57 40.98519 -85.18649 800 ft 25 kts 45°
2026-04-24 11:57 40.98626 -85.18513 799 ft 19 kts 43°
2026-04-24 11:57 40.98701 -85.18396 797 ft 11 kts 84°
2026-04-24 11:58 40.98694 -85.18357 796 ft 0 kts 130°
2026-04-24 11:58 40.98693 -85.18355 796 ft 2 kts 131°
2026-04-24 11:58 40.98662 -85.18315 796 ft 10 kts 137°
2026-04-24 11:59 40.98594 -85.18288 798 ft 7 kts 219°
2026-04-24 11:59 40.98589 -85.18293 798 ft 1 kts 223°
2026-04-24 11:59 40.98487 -85.18420 799 ft 50 kts 224°
2026-04-24 11:59 40.98076 -85.18960 844 ft 110 kts 224°
2026-04-24 12:00 40.97704 -85.19448 1091 ft 116 kts 224°
2026-04-24 12:00 40.97153 -85.20180 1704 ft 105 kts 225°
2026-04-24 12:00 40.96681 -85.20795 2379 ft 90 kts 221°
2026-04-24 12:00 40.96100 -85.20848 3064 ft 101 kts 165°
2026-04-24 12:01 40.95712 -85.19959 3607 ft 127 kts 99°
2026-04-24 12:01 40.96083 -85.18921 4144 ft 129 kts 33°
2026-04-24 12:01 40.96849 -85.18233 4548 ft 141 kts 25°
2026-04-24 12:01 40.97678 -85.17554 5063 ft 135 kts 26°
2026-04-24 12:02 40.98433 -85.16927 5658 ft 121 kts 25°
2026-04-24 12:02 40.99098 -85.16371 6240 ft 105 kts 24°
2026-04-24 12:02 40.99670 -85.15786 6587 ft 112 kts 36°
2026-04-24 12:02 41.00284 -85.15080 6916 ft 120 kts 36°
2026-04-24 12:03 41.00802 -85.14199 7304 ft 123 kts 58°
2026-04-24 12:03 41.01258 -85.13242 7713 ft 123 kts 55°
2026-04-24 12:03 41.01756 -85.12328 8120 ft 122 kts 53°
2026-04-24 12:03 41.02250 -85.11416 8532 ft 121 kts 53°
2026-04-24 12:04 41.02740 -85.10513 8940 ft 121 kts 53°
2026-04-24 12:04 41.03229 -85.09611 9343 ft 120 kts 54°
2026-04-24 12:04 41.03714 -85.08714 9749 ft 119 kts 54°
2026-04-24 12:04 41.04196 -85.07825 10099 ft 118 kts 53°
2026-04-24 12:05 41.04676 -85.06937 10436 ft 119 kts 53°
2026-04-24 12:05 41.05158 -85.06045 10770 ft 119 kts 53°
2026-04-24 12:05 41.05649 -85.05130 11006 ft 132 kts 53°
2026-04-24 12:05 41.06229 -85.04023 11002 ft 160 kts 54°
2026-04-24 12:06 41.06900 -85.02762 10953 ft 177 kts 54°
2026-04-24 12:06 41.07633 -85.01410 10945 ft 184 kts 53°
2026-04-24 12:06 41.07926 -85.00870 10941 ft 186 kts 54°
2026-04-24 12:06 41.08686 -84.99467 10939 ft 188 kts 54°
2026-04-24 12:07 41.09450 -84.98050 10939 ft 189 kts 54°
2026-04-24 12:07 41.10219 -84.96626 10934 ft 190 kts 54°
2026-04-24 12:07 41.10985 -84.95202 10933 ft 190 kts 54°
2026-04-24 12:07 41.11755 -84.93771 10933 ft 190 kts 54°
2026-04-24 12:08 41.12524 -84.92342 10934 ft 190 kts 54°
2026-04-24 12:08 41.13293 -84.90912 10932 ft 190 kts 54°
2026-04-24 12:08 41.14059 -84.89486 10930 ft 190 kts 54°
2026-04-24 12:08 41.14827 -84.88057 10931 ft 190 kts 54°
2026-04-24 12:09 41.15593 -84.86630 10921 ft 190 kts 54°
2026-04-24 12:09 41.16361 -84.85198 10925 ft 190 kts 54°
2026-04-24 12:09 41.17130 -84.83765 10923 ft 191 kts 54°
2026-04-24 12:09 41.17898 -84.82333 10924 ft 191 kts 54°
2026-04-24 12:10 41.18668 -84.80897 10924 ft 191 kts 54°
2026-04-24 12:10 41.19439 -84.79457 10922 ft 191 kts 54°
2026-04-24 12:10 41.20208 -84.78018 10923 ft 190 kts 54°
2026-04-24 12:11 41.21740 -84.75158 10924 ft 190 kts 54°
2026-04-24 12:11 41.22496 -84.73744 10922 ft 190 kts 54°
2026-04-24 12:11 41.23259 -84.72314 10924 ft 190 kts 54°
2026-04-24 12:11 41.24026 -84.70879 10924 ft 190 kts 54°
2026-04-24 12:12 41.24794 -84.69442 10926 ft 190 kts 54°
2026-04-24 12:12 41.25818 -84.67522 10922 ft 191 kts 54°
2026-04-24 12:12 41.26326 -84.66569 10923 ft 191 kts 54°
2026-04-24 12:12 41.27094 -84.65129 10928 ft 191 kts 54°
2026-04-24 12:13 41.27864 -84.63684 10929 ft 192 kts 54°
2026-04-24 12:13 41.28634 -84.62237 10929 ft 192 kts 54°
2026-04-24 12:13 41.29403 -84.60793 10925 ft 191 kts 54°
2026-04-24 12:13 41.30171 -84.59351 10926 ft 191 kts 54°
2026-04-24 12:14 41.30936 -84.57913 10926 ft 191 kts 54°
2026-04-24 12:14 41.31703 -84.56470 10926 ft 191 kts 54°
2026-04-24 12:14 41.32469 -84.55029 10924 ft 191 kts 54°
2026-04-24 12:14 41.33235 -84.53587 10924 ft 191 kts 54°
2026-04-24 12:15 41.34000 -84.52145 10926 ft 191 kts 54°
2026-04-24 12:15 41.34766 -84.50701 10924 ft 191 kts 54°
2026-04-24 12:15 41.35531 -84.49260 10923 ft 191 kts 54°
2026-04-24 12:15 41.36298 -84.47814 10925 ft 191 kts 54°
2026-04-24 12:16 41.37064 -84.46368 10924 ft 191 kts 54°
2026-04-24 12:16 41.37829 -84.44922 10927 ft 191 kts 54°
2026-04-24 12:16 41.38595 -84.43476 10924 ft 191 kts 54°
2026-04-24 12:16 41.39360 -84.42030 10923 ft 191 kts 54°
2026-04-24 12:17 41.40125 -84.40586 10923 ft 191 kts 54°
2026-04-24 12:17 41.40889 -84.39140 10923 ft 191 kts 54°
2026-04-24 12:17 41.41654 -84.37693 10923 ft 191 kts 54°
2026-04-24 12:17 41.42417 -84.36247 10925 ft 191 kts 54°
2026-04-24 12:18 41.43173 -84.34814 10924 ft 191 kts 54°
2026-04-24 12:18 41.43948 -84.33346 10923 ft 191 kts 54°
2026-04-24 12:18 41.44704 -84.31914 10925 ft 191 kts 54°
2026-04-24 12:18 41.45468 -84.30463 10925 ft 191 kts 54°
2026-04-24 12:19 41.46234 -84.29011 10924 ft 191 kts 54°
2026-04-24 12:19 41.46999 -84.27558 10921 ft 192 kts 54°
2026-04-24 12:19 41.47764 -84.26104 10922 ft 191 kts 54°
2026-04-24 12:19 41.48528 -84.24650 10924 ft 191 kts 54°
2026-04-24 12:20 41.49293 -84.23197 10921 ft 191 kts 54°
2026-04-24 12:20 41.50057 -84.21743 10922 ft 191 kts 54°
2026-04-24 12:20 41.50821 -84.20290 10920 ft 191 kts 54°
2026-04-24 12:20 41.51584 -84.18837 10921 ft 191 kts 54°
2026-04-24 12:21 41.52347 -84.17385 10922 ft 191 kts 54°
2026-04-24 12:21 41.53111 -84.15928 10923 ft 191 kts 54°
2026-04-24 12:21 41.53875 -84.14471 10922 ft 191 kts 54°
2026-04-24 12:21 41.54637 -84.13017 10921 ft 191 kts 54°
2026-04-24 12:22 41.55398 -84.11564 10922 ft 191 kts 54°
2026-04-24 12:22 41.56161 -84.10106 10923 ft 191 kts 54°
2026-04-24 12:22 41.56925 -84.08647 10920 ft 191 kts 54°
2026-04-24 12:22 41.57688 -84.07190 10921 ft 192 kts 54°
2026-04-24 12:23 41.58450 -84.05731 10922 ft 192 kts 54°
2026-04-24 12:23 41.59212 -84.04274 10922 ft 191 kts 54°
2026-04-24 12:23 41.59975 -84.02813 10921 ft 191 kts 54°
2026-04-24 12:23 41.60736 -84.01356 10923 ft 191 kts 54°
2026-04-24 12:24 41.61499 -83.99894 10922 ft 192 kts 54°
2026-04-24 12:24 41.62260 -83.98437 10921 ft 192 kts 54°
2026-04-24 12:24 41.63023 -83.96975 10921 ft 192 kts 54°
2026-04-24 12:24 41.63784 -83.95513 10929 ft 192 kts 54°
2026-04-24 12:25 41.64544 -83.94053 10928 ft 192 kts 54°
2026-04-24 12:25 41.65306 -83.92589 10929 ft 191 kts 54°
2026-04-24 12:25 41.66057 -83.91145 10929 ft 192 kts 54°
2026-04-24 12:25 41.66819 -83.89682 10929 ft 192 kts 54°
2026-04-24 12:26 41.67580 -83.88219 10928 ft 192 kts 54°
2026-04-24 12:26 41.68341 -83.86753 10927 ft 192 kts 54°
2026-04-24 12:26 41.69102 -83.85289 10929 ft 192 kts 54°
2026-04-24 12:26 41.69861 -83.83827 10929 ft 192 kts 54°
2026-04-24 12:27 41.70622 -83.82361 10927 ft 192 kts 54°
2026-04-24 12:27 41.71383 -83.80893 10929 ft 192 kts 54°
2026-04-24 12:27 41.72144 -83.79426 10929 ft 192 kts 54°
2026-04-24 12:27 41.72902 -83.77962 10930 ft 192 kts 54°
2026-04-24 12:28 41.73662 -83.76496 10931 ft 192 kts 54°
2026-04-24 12:28 41.74421 -83.75028 10930 ft 192 kts 54°
2026-04-24 12:28 41.75180 -83.73560 10930 ft 192 kts 54°
2026-04-24 12:28 41.75939 -83.72095 10929 ft 192 kts 54°
2026-04-24 12:29 41.76697 -83.70629 10928 ft 192 kts 54°
2026-04-24 12:29 41.77455 -83.69162 10931 ft 191 kts 54°
2026-04-24 12:29 41.78212 -83.67694 10932 ft 192 kts 54°
2026-04-24 12:29 41.78969 -83.66226 10931 ft 192 kts 54°
2026-04-24 12:30 41.79731 -83.64754 10931 ft 192 kts 54°
2026-04-24 12:30 41.80493 -83.63274 10936 ft 193 kts 54°
2026-04-24 12:30 41.81260 -83.61791 10936 ft 193 kts 54°
2026-04-24 12:30 41.82021 -83.60308 10936 ft 193 kts 54°
2026-04-24 12:31 41.82780 -83.58832 10935 ft 193 kts 54°
2026-04-24 12:31 41.83543 -83.57354 10933 ft 192 kts 54°
2026-04-24 12:31 41.84300 -83.55879 10931 ft 192 kts 54°
2026-04-24 12:31 41.85058 -83.54407 10934 ft 192 kts 54°
2026-04-24 12:32 41.85807 -83.52950 10933 ft 192 kts 54°
2026-04-24 12:32 41.86565 -83.51474 10929 ft 192 kts 54°
2026-04-24 12:32 41.87321 -83.50003 10931 ft 192 kts 54°
2026-04-24 12:32 41.88078 -83.48527 10935 ft 192 kts 54°
2026-04-24 12:33 41.88835 -83.47050 10934 ft 192 kts 54°
2026-04-24 12:33 41.89592 -83.45574 10932 ft 192 kts 54°
2026-04-24 12:33 41.90348 -83.44097 10931 ft 192 kts 54°
2026-04-24 12:33 41.91105 -83.42621 10930 ft 192 kts 54°
2026-04-24 12:34 41.91860 -83.41147 10931 ft 192 kts 54°
2026-04-24 12:34 41.92615 -83.39669 10930 ft 192 kts 54°
2026-04-24 12:34 41.93373 -83.38187 10931 ft 192 kts 54°
2026-04-24 12:34 41.94126 -83.36715 10932 ft 192 kts 54°
2026-04-24 12:35 41.94882 -83.35237 10931 ft 192 kts 54°
2026-04-24 12:35 41.95636 -83.33762 10932 ft 192 kts 54°
2026-04-24 12:35 41.96391 -83.32280 10932 ft 192 kts 54°
2026-04-24 12:35 41.97143 -83.30805 10931 ft 192 kts 54°
2026-04-24 12:36 41.97898 -83.29327 10929 ft 192 kts 54°
2026-04-24 12:36 41.98651 -83.27851 10930 ft 192 kts 54°
2026-04-24 12:36 41.99403 -83.26372 10931 ft 192 kts 54°
2026-04-24 12:36 42.00158 -83.24890 10934 ft 192 kts 54°
2026-04-24 12:37 42.00913 -83.23407 10934 ft 193 kts 54°
2026-04-24 12:37 42.01670 -83.21917 10931 ft 192 kts 54°
2026-04-24 12:37 42.02423 -83.20435 10935 ft 192 kts 54°
2026-04-24 12:37 42.03176 -83.18955 10934 ft 192 kts 54°
2026-04-24 12:38 42.03919 -83.17494 10931 ft 191 kts 54°
2026-04-24 12:38 42.04670 -83.16013 10931 ft 191 kts 54°
2026-04-24 12:38 42.05420 -83.14536 10932 ft 191 kts 54°
2026-04-24 12:39 42.07667 -83.10105 10930 ft 191 kts 54°
2026-04-24 12:39 42.08415 -83.08625 10931 ft 191 kts 54°
2026-04-24 12:39 42.09163 -83.07146 10934 ft 191 kts 54°
2026-04-24 12:40 42.09911 -83.05669 10932 ft 191 kts 54°
2026-04-24 12:40 42.10659 -83.04192 10933 ft 191 kts 54°
2026-04-24 12:40 42.11405 -83.02715 10930 ft 191 kts 54°
2026-04-24 12:40 42.12151 -83.01239 10933 ft 191 kts 54°
2026-04-24 12:41 42.12898 -82.99760 10932 ft 191 kts 54°
2026-04-24 12:41 42.13643 -82.98284 10930 ft 191 kts 54°
2026-04-24 12:41 42.14388 -82.96805 10932 ft 191 kts 54°
2026-04-24 12:41 42.15133 -82.95329 10933 ft 191 kts 54°
2026-04-24 12:42 42.15879 -82.93851 10934 ft 190 kts 54°
2026-04-24 12:42 42.16623 -82.92371 10930 ft 190 kts 54°
2026-04-24 12:42 42.17368 -82.90893 10931 ft 190 kts 54°
2026-04-24 12:42 42.18110 -82.89418 10934 ft 190 kts 54°
2026-04-24 12:43 42.18855 -82.87938 10932 ft 190 kts 54°
2026-04-24 12:43 42.19587 -82.86480 10930 ft 190 kts 54°
2026-04-24 12:43 42.20330 -82.85005 10930 ft 190 kts 54°
2026-04-24 12:43 42.21069 -82.83530 10931 ft 190 kts 54°
2026-04-24 12:44 42.21810 -82.82054 10931 ft 190 kts 54°
2026-04-24 12:44 42.22552 -82.80578 10932 ft 190 kts 54°
2026-04-24 12:44 42.23293 -82.79100 10933 ft 190 kts 54°
2026-04-24 12:44 42.24032 -82.77624 10932 ft 190 kts 54°
2026-04-24 12:45 42.24772 -82.76148 10934 ft 190 kts 54°
2026-04-24 12:45 42.25511 -82.74672 10932 ft 190 kts 54°
2026-04-24 12:45 42.26251 -82.73195 10932 ft 190 kts 54°
2026-04-24 12:45 42.26989 -82.71718 10932 ft 190 kts 54°
2026-04-24 12:46 42.27726 -82.70245 10933 ft 190 kts 54°
2026-04-24 12:46 42.28464 -82.68770 10932 ft 190 kts 54°
2026-04-24 12:46 42.29202 -82.67292 10933 ft 190 kts 54°
2026-04-24 12:46 42.29959 -82.65827 10934 ft 190 kts 52°
2026-04-24 12:47 42.30745 -82.64395 10934 ft 190 kts 52°
2026-04-24 12:47 42.31522 -82.62957 10931 ft 189 kts 52°
2026-04-24 12:47 42.32294 -82.61529 10898 ft 191 kts 52°
2026-04-24 12:47 42.33075 -82.60083 10900 ft 190 kts 52°
2026-04-24 12:48 42.33854 -82.58639 10900 ft 190 kts 52°
2026-04-24 12:48 42.34630 -82.57199 10894 ft 190 kts 52°
2026-04-24 12:48 42.35407 -82.55757 10898 ft 190 kts 52°
2026-04-24 12:48 42.35932 -82.54783 10901 ft 190 kts 52°
2026-04-24 12:49 42.36959 -82.52878 10900 ft 190 kts 52°
2026-04-24 12:49 42.37485 -82.51903 10902 ft 190 kts 52°
2026-04-24 12:49 42.38260 -82.50462 10901 ft 190 kts 52°
2026-04-24 12:49 42.39038 -82.49019 10901 ft 190 kts 52°
2026-04-24 12:50 42.39813 -82.47582 10900 ft 190 kts 52°
2026-04-24 12:50 42.40592 -82.46141 10906 ft 190 kts 52°
2026-04-24 12:50 42.41370 -82.44698 10905 ft 190 kts 52°
2026-04-24 12:50 42.42147 -82.43253 10904 ft 190 kts 52°
2026-04-24 12:51 42.42922 -82.41811 10904 ft 190 kts 52°
2026-04-24 12:51 42.43698 -82.40367 10902 ft 190 kts 52°
2026-04-24 12:51 42.44466 -82.38941 10903 ft 190 kts 52°
2026-04-24 12:51 42.45254 -82.37477 10905 ft 190 kts 52°
2026-04-24 12:52 42.46033 -82.36033 10903 ft 190 kts 52°
2026-04-24 12:52 42.46799 -82.34610 10906 ft 190 kts 52°
2026-04-24 12:52 42.47575 -82.33166 10906 ft 190 kts 52°
2026-04-24 12:52 42.48353 -82.31722 10902 ft 190 kts 52°
2026-04-24 12:53 42.49132 -82.30277 10908 ft 190 kts 52°
2026-04-24 12:53 42.49912 -82.28831 10909 ft 190 kts 52°
2026-04-24 12:53 42.50691 -82.27386 10909 ft 190 kts 52°
2026-04-24 12:53 42.51472 -82.25938 10906 ft 190 kts 52°
2026-04-24 12:54 42.52250 -82.24492 10907 ft 190 kts 52°
2026-04-24 12:54 42.53031 -82.23042 10908 ft 190 kts 52°
2026-04-24 12:54 42.53812 -82.21587 10910 ft 191 kts 52°
2026-04-24 12:54 42.54595 -82.20130 10903 ft 191 kts 52°
2026-04-24 12:55 42.55371 -82.18678 10904 ft 190 kts 52°
2026-04-24 12:55 42.56151 -82.17226 10908 ft 190 kts 52°
2026-04-24 12:55 42.56930 -82.15775 10911 ft 190 kts 52°
2026-04-24 12:55 42.57324 -82.15040 10914 ft 190 kts 52°
2026-04-24 12:56 42.57969 -82.13839 10910 ft 191 kts 52°
2026-04-24 12:56 42.58748 -82.12387 10913 ft 191 kts 52°
2026-04-24 12:56 42.59530 -82.10930 10914 ft 191 kts 52°
2026-04-24 12:56 42.60310 -82.09478 10910 ft 191 kts 52°
2026-04-24 12:57 42.61092 -82.08018 10911 ft 191 kts 52°
2026-04-24 12:57 42.61871 -82.06562 10914 ft 191 kts 52°
2026-04-24 12:57 42.62651 -82.05105 10915 ft 191 kts 52°
2026-04-24 12:57 42.63431 -82.03650 10916 ft 191 kts 52°
2026-04-24 12:58 42.64209 -82.02193 10916 ft 191 kts 52°
2026-04-24 12:58 42.64990 -82.00735 10917 ft 191 kts 52°
2026-04-24 12:58 42.65771 -81.99277 10917 ft 191 kts 52°
2026-04-24 12:58 42.66551 -81.97822 10915 ft 191 kts 52°
2026-04-24 12:59 42.67322 -81.96384 10913 ft 191 kts 52°
2026-04-24 12:59 42.68110 -81.94920 10846 ft 189 kts 52°
2026-04-24 12:59 42.68878 -81.93489 10658 ft 190 kts 52°
2026-04-24 12:59 42.69657 -81.92043 10452 ft 189 kts 52°
2026-04-24 13:00 42.70435 -81.90597 10254 ft 189 kts 52°
2026-04-24 13:00 42.71210 -81.89158 10056 ft 189 kts 52°
2026-04-24 13:00 42.71981 -81.87720 9838 ft 188 kts 51°
2026-04-24 13:00 42.72752 -81.86283 9618 ft 188 kts 51°
2026-04-24 13:01 42.73519 -81.84850 9371 ft 187 kts 51°
2026-04-24 13:01 42.74281 -81.83424 9128 ft 186 kts 51°
2026-04-24 13:01 42.75035 -81.82005 8878 ft 184 kts 52°
2026-04-24 13:01 42.75786 -81.80589 8580 ft 184 kts 51°
2026-04-24 13:02 42.76534 -81.79175 8293 ft 184 kts 51°
2026-04-24 13:02 42.77281 -81.77773 8023 ft 182 kts 51°
2026-04-24 13:02 42.78020 -81.76376 7725 ft 181 kts 52°
2026-04-24 13:02 42.78750 -81.74985 7464 ft 181 kts 52°
2026-04-24 13:03 42.79479 -81.73593 7213 ft 180 kts 51°
2026-04-24 13:03 42.80202 -81.72206 6959 ft 179 kts 51°
2026-04-24 13:03 42.80922 -81.70821 6710 ft 179 kts 51°
2026-04-24 13:03 42.81630 -81.69457 6501 ft 178 kts 52°
2026-04-24 13:04 42.82350 -81.68069 6291 ft 177 kts 51°
2026-04-24 13:04 42.83046 -81.66713 6063 ft 176 kts 51°
2026-04-24 13:04 42.83745 -81.65348 5876 ft 175 kts 52°
2026-04-24 13:04 42.84454 -81.63968 5644 ft 175 kts 50°
2026-04-24 13:05 42.85140 -81.62630 5424 ft 175 kts 52°
2026-04-24 13:05 42.85836 -81.61273 5203 ft 174 kts 51°
2026-04-24 13:05 42.86526 -81.59930 4880 ft 173 kts 51°
2026-04-24 13:05 42.87217 -81.58582 4599 ft 173 kts 52°
2026-04-24 13:06 42.87903 -81.57245 4264 ft 172 kts 51°
2026-04-24 13:06 42.88605 -81.55927 3985 ft 171 kts 51°
2026-04-24 13:06 42.89295 -81.54596 3689 ft 172 kts 52°
2026-04-24 13:06 42.89985 -81.53266 3471 ft 172 kts 52°
2026-04-24 13:07 42.90682 -81.51954 3254 ft 170 kts 52°
2026-04-24 13:07 42.91366 -81.50638 3012 ft 170 kts 53°
2026-04-24 13:07 42.92050 -81.49316 2738 ft 170 kts 55°
2026-04-24 13:07 42.92768 -81.48070 2537 ft 164 kts 55°
2026-04-24 13:08 42.93488 -81.46877 2359 ft 161 kts 54°
2026-04-24 13:08 42.94205 -81.45759 2066 ft 154 kts 53°
2026-04-24 13:08 42.94846 -81.44671 1940 ft 139 kts 62°
2026-04-24 13:09 42.95817 -81.42575 1934 ft 130 kts 65°
2026-04-24 13:09 42.96282 -81.41491 1957 ft 136 kts 65°
2026-04-24 13:09 42.96756 -81.40366 1949 ft 138 kts 65°
2026-04-24 13:09 42.97243 -81.39215 1951 ft 143 kts 64°
2026-04-24 13:10 42.97730 -81.38018 1941 ft 145 kts 66°
2026-04-24 13:10 42.98230 -81.36831 1952 ft 145 kts 64°
2026-04-24 13:10 42.98733 -81.35641 1956 ft 144 kts 63°
2026-04-24 13:10 42.99370 -81.34601 1945 ft 147 kts 47°
2026-04-24 13:11 43.00187 -81.33756 1944 ft 147 kts 44°
2026-04-24 13:11 43.01010 -81.32940 1943 ft 145 kts 43°
2026-04-24 13:11 43.01824 -81.32130 1945 ft 143 kts 43°
2026-04-24 13:11 43.02511 -81.31209 1947 ft 134 kts 69°
2026-04-24 13:12 43.02776 -81.30033 1955 ft 128 kts 84°
2026-04-24 13:12 43.02881 -81.28825 1953 ft 126 kts 88°
2026-04-24 13:12 43.02965 -81.27640 1950 ft 124 kts 89°
2026-04-24 13:12 43.03035 -81.26516 1946 ft 114 kts 89°
2026-04-24 13:13 43.03108 -81.25464 1943 ft 108 kts 88°
2026-04-24 13:13 43.03176 -81.24447 1924 ft 104 kts 89°
2026-04-24 13:13 43.03236 -81.23514 1867 ft 94 kts 89°
2026-04-24 13:13 43.03294 -81.22635 1762 ft 91 kts 87°
2026-04-24 13:14 43.03347 -81.21810 1692 ft 76 kts 88°
2026-04-24 13:14 43.03362 -81.21178 1653 ft 65 kts 91°
2026-04-24 13:14 43.03355 -81.20552 1664 ft 69 kts 92°
2026-04-24 13:14 43.03346 -81.19904 1650 ft 69 kts 89°
2026-04-24 13:15 43.03402 -81.19274 1548 ft 67 kts 82°
2026-04-24 13:15 43.03498 -81.18648 1402 ft 68 kts 82°
2026-04-24 13:15 43.03574 -81.18027 1305 ft 65 kts 81°
2026-04-24 13:15 43.03664 -81.17423 1174 ft 65 kts 82°
2026-04-24 13:16 43.03751 -81.16808 1091 ft 71 kts 79°
2026-04-24 13:16 43.03847 -81.16087 944 ft 80 kts 82°
2026-04-24 13:16 43.03943 -81.15407 903 ft 62 kts 82°
2026-04-24 13:16 43.03992 -81.15035 903 ft 30 kts 79°
2026-04-24 13:17 43.04040 -81.14714 903 ft 32 kts 79°
2026-04-24 13:17 43.04054 -81.14512 903 ft 14 kts 119°
2026-04-24 13:17 43.03969 -81.14452 903 ft 18 kts 159°
2026-04-24 13:17 43.03855 -81.14417 903 ft 19 kts 202°
2026-04-24 13:18 43.03734 -81.14558 903 ft 26 kts 218°
2026-04-24 13:18 43.03588 -81.14758 903 ft 31 kts 227°
2026-04-24 13:18 43.03438 -81.14954 904 ft 29 kts 227°
2026-04-24 13:18 43.03315 -81.15121 903 ft 19 kts 222°
2026-04-24 13:19 43.03241 -81.15136 903 ft 15 kts 137°
2026-04-24 13:19 43.03145 -81.15020 903 ft 20 kts 139°
2026-04-24 13:19 43.03050 -81.14909 903 ft 19 kts 141°
2026-04-24 13:19 43.02952 -81.14788 903 ft 15 kts 138°
2026-04-24 13:20 43.02896 -81.14722 903 ft 9 kts 145°
2026-04-24 13:20 43.02867 -81.14757 903 ft 7 kts 279°
2026-04-24 13:20 43.02878 -81.14779 903 ft 0 kts 317°